カタログに戻る

STARLINK-37064

運用中通信SSO
NORAD 68157·PAYLOAD·🇺🇸 United States

打ち上げ Mar 13, 2026 から Vandenberg Space Force Base

Loading…

次のパス (今後24時間)

TLE

最新Source: CelesTrak SupGP

元期: Sep 14, 2026, 15:15 UTC

1 68157C 26049R   26257.63590278 -.00046593  00000+0 -14462-2 0  2574
2 68157  97.2837 277.7211 0001364  96.8844 322.6609 15.33466052    19

AllMySatでSTARLINK-37064をリアルタイム追跡

Download on the App Store